Time,TemperatureF,DewpointF,PressureIn,WindDirection,WindDirectionDegrees,WindSpeedMPH,WindSpeedGustMPH,Humidity,HourlyPrecipIn,Conditions,Clouds,dailyrainin,SoftwareType,DateUTC
2013-03-29 00:03:00,36.0,20.0,30.18,South,174,0.0,3.0,52,0.00,,,0.00,,2013-03-29 04:03:00,
2013-03-29 00:13:00,36.0,20.0,30.18,South,174,0.0,3.0,52,0.00,,,0.00,,2013-03-29 04:13:00,
2013-03-29 00:23:00,36.0,20.0,30.18,South,174,0.0,3.0,52,0.00,,,0.00,,2013-03-29 04:23:00,
2013-03-29 00:33:00,36.0,20.0,30.18,South,174,1.0,4.0,52,0.00,,,0.00,,2013-03-29 04:33:00,
2013-03-29 00:43:00,36.0,20.0,30.18,South,174,1.0,4.0,52,0.00,,,0.00,,2013-03-29 04:43:00,
2013-03-29 00:52:00,36.0,21.0,30.18,South,174,1.0,4.0,53,0.00,,,0.00,,2013-03-29 04:52:00,
2013-03-29 01:03:00,35.0,20.0,30.18,South,174,2.0,5.0,54,0.00,,,0.00,,2013-03-29 05:03:00,
2013-03-29 01:13:00,35.0,20.0,30.18,South,174,2.0,5.0,54,0.00,,,0.00,,2013-03-29 05:13:00,
2013-03-29 01:23:00,36.0,21.0,30.18,South,175,1.0,5.0,54,0.00,,,0.00,,2013-03-29 05:23:00,
2013-03-29 01:33:00,36.0,21.0,30.19,South,173,2.0,6.0,54,0.00,,,0.00,,2013-03-29 05:33:00,
2013-03-29 01:43:00,36.0,21.0,30.19,South,173,2.0,6.0,54,0.00,,,0.00,,2013-03-29 05:43:00,
2013-03-29 01:52:00,35.0,20.0,30.19,South,173,2.0,5.0,55,0.00,,,0.00,,2013-03-29 05:52:00,
2013-03-29 02:03:00,35.0,20.0,30.18,SSE,167,3.0,8.0,55,0.00,,,0.00,,2013-03-29 06:03:00,
2013-03-29 02:12:00,35.0,20.0,30.18,SSE,167,3.0,8.0,55,0.00,,,0.00,,2013-03-29 06:12:00,
2013-03-29 02:23:00,35.0,20.0,30.18,SSE,167,4.0,8.0,55,0.00,,,0.00,,2013-03-29 06:23:00,
2013-03-29 02:32:00,35.0,21.0,30.18,South,169,3.0,10.0,56,0.00,,,0.00,,2013-03-29 06:32:00,
2013-03-29 02:42:00,35.0,21.0,30.18,South,169,3.0,10.0,56,0.00,,,0.00,,2013-03-29 06:42:00,
2013-03-29 02:52:00,35.0,21.0,30.17,South,172,1.0,8.0,57,0.00,,,0.00,,2013-03-29 06:52:00,
2013-03-29 03:03:00,35.0,22.0,30.17,South,173,3.0,11.0,58,0.00,,,0.00,,2013-03-29 07:03:00,
2013-03-29 03:12:00,35.0,22.0,30.17,South,173,3.0,11.0,58,0.00,,,0.00,,2013-03-29 07:12:00,
2013-03-29 03:22:00,34.0,21.0,30.17,SSE,166,2.0,8.0,58,0.00,,,0.00,,2013-03-29 07:22:00,
2013-03-29 03:32:00,34.0,21.0,30.17,South,172,2.0,7.0,59,0.00,,,0.00,,2013-03-29 07:32:00,
2013-03-29 03:42:00,34.0,21.0,30.17,South,172,2.0,7.0,59,0.00,,,0.00,,2013-03-29 07:42:00,
2013-03-29 03:52:00,34.0,22.0,30.17,South,172,2.0,9.0,60,0.00,,,0.00,,2013-03-29 07:52:00,
2013-03-29 04:02:00,34.0,22.0,30.17,South,172,2.0,9.0,60,0.00,,,0.00,,2013-03-29 08:02:00,
2013-03-29 04:12:00,34.0,22.0,30.17,South,172,2.0,9.0,60,0.00,,,0.00,,2013-03-29 08:12:00,
2013-03-29 04:22:00,33.0,21.0,30.16,South,174,1.0,8.0,61,0.00,,,0.00,,2013-03-29 08:22:00,
2013-03-29 04:32:00,33.0,22.0,30.16,South,174,3.0,9.0,63,0.00,,,0.00,,2013-03-29 08:32:00,
2013-03-29 04:42:00,33.0,22.0,30.16,South,174,3.0,9.0,63,0.00,,,0.00,,2013-03-29 08:42:00,
2013-03-29 04:53:00,32.0,21.0,30.16,South,170,1.0,9.0,64,0.00,,,0.00,,2013-03-29 08:53:00,
2013-03-29 05:02:00,32.0,22.0,30.16,South,170,0.0,6.0,66,0.00,,,0.00,,2013-03-29 09:02:00,
2013-03-29 05:13:00,32.0,22.0,30.16,South,170,0.0,6.0,66,0.00,,,0.00,,2013-03-29 09:13:00,
2013-03-29 05:22:00,32.0,22.0,30.16,South,169,1.0,8.0,66,0.00,,,0.00,,2013-03-29 09:22:00,
2013-03-29 05:33:00,32.0,22.0,30.17,South,172,1.0,8.0,66,0.00,,,0.00,,2013-03-29 09:33:00,
2013-03-29 05:43:00,32.0,22.0,30.17,South,172,1.0,8.0,66,0.00,,,0.00,,2013-03-29 09:43:00,
2013-03-29 05:52:00,33.0,22.0,30.17,South,172,2.0,8.0,63,0.00,,,0.00,,2013-03-29 09:52:00,
2013-03-29 06:03:00,33.0,22.0,30.17,South,174,1.0,6.0,63,0.00,,,0.00,,2013-03-29 10:03:00,
2013-03-29 06:12:00,33.0,22.0,30.17,South,174,1.0,6.0,63,0.00,,,0.00,,2013-03-29 10:12:00,
2013-03-29 06:23:00,33.0,22.0,30.18,South,174,1.0,6.0,63,0.00,,,0.00,,2013-03-29 10:23:00,
2013-03-29 06:33:00,33.0,22.0,30.18,South,170,1.0,6.0,63,0.00,,,0.00,,2013-03-29 10:33:00,
2013-03-29 06:42:00,33.0,22.0,30.18,South,170,1.0,6.0,63,0.00,,,0.00,,2013-03-29 10:42:00,
2013-03-29 06:53:00,33.0,21.0,30.18,South,169,2.0,8.0,62,0.00,,,0.00,,2013-03-29 10:53:00,
2013-03-29 07:03:00,34.0,22.0,30.18,South,175,2.0,7.0,61,0.00,,,0.00,,2013-03-29 11:03:00,
2013-03-29 07:12:00,34.0,22.0,30.18,South,175,2.0,7.0,61,0.00,,,0.00,,2013-03-29 11:12:00,
2013-03-29 07:23:00,34.0,22.0,30.18,South,174,3.0,10.0,61,0.00,,,0.00,,2013-03-29 11:23:00,
2013-03-29 07:33:00,34.0,22.0,30.18,South,169,2.0,8.0,60,0.00,,,0.00,,2013-03-29 11:33:00,
2013-03-29 07:42:00,34.0,22.0,30.18,South,169,2.0,8.0,60,0.00,,,0.00,,2013-03-29 11:42:00,
2013-03-29 07:53:00,35.0,22.0,30.19,South,170,1.0,5.0,59,0.00,,,0.00,,2013-03-29 11:53:00,
2013-03-29 08:03:00,36.0,21.0,30.19,South,170,1.0,4.0,53,0.00,,,0.00,,2013-03-29 12:03:00,
2013-03-29 08:13:00,36.0,21.0,30.19,South,170,1.0,4.0,53,0.00,,,0.00,,2013-03-29 12:13:00,
2013-03-29 08:22:00,37.0,21.0,30.19,South,170,0.0,3.0,52,0.00,,,0.00,,2013-03-29 12:22:00,
2013-03-29 08:32:00,37.0,21.0,30.19,South,170,0.0,3.0,52,0.00,,,0.00,,2013-03-29 12:32:00,
2013-03-29 08:42:00,37.0,21.0,30.19,South,170,0.0,3.0,52,0.00,,,0.00,,2013-03-29 12:42:00,
2013-03-29 08:53:00,37.0,22.0,30.20,South,170,0.0,1.0,54,0.00,,,0.00,,2013-03-29 12:53:00,
2013-03-29 09:03:00,37.0,23.0,30.20,South,171,0.0,2.0,56,0.00,,,0.00,,2013-03-29 13:03:00,
2013-03-29 09:13:00,37.0,23.0,30.20,South,171,0.0,2.0,56,0.00,,,0.00,,2013-03-29 13:13:00,
2013-03-29 09:23:00,38.0,22.0,30.21,South,170,0.0,1.0,51,0.00,,,0.00,,2013-03-29 13:23:00,
2013-03-29 09:33:00,39.0,21.0,30.21,South,171,1.0,2.0,49,0.00,,,0.00,,2013-03-29 13:33:00,
2013-03-29 09:43:00,39.0,21.0,30.21,South,171,1.0,2.0,49,0.00,,,0.00,,2013-03-29 13:43:00,
2013-03-29 09:53:00,41.0,25.0,30.20,South,170,0.0,5.0,52,0.00,,,0.00,,2013-03-29 13:53:00,
2013-03-29 10:03:00,43.0,23.0,30.20,South,170,0.0,2.0,44,0.00,,,0.00,,2013-03-29 14:03:00,
2013-03-29 10:12:00,43.0,23.0,30.20,South,170,0.0,2.0,44,0.00,,,0.00,,2013-03-29 14:12:00,
2013-03-29 10:22:00,44.0,25.0,30.21,South,170,0.0,3.0,46,0.00,,,0.00,,2013-03-29 14:22:00,
2013-03-29 10:32:00,45.0,25.0,30.20,South,170,0.0,4.0,45,0.00,,,0.00,,2013-03-29 14:32:00,
2013-03-29 10:42:00,45.0,25.0,30.20,South,170,0.0,4.0,45,0.00,,,0.00,,2013-03-29 14:42:00,
2013-03-29 10:53:00,46.0,25.0,30.21,South,170,1.0,4.0,43,0.00,,,0.00,,2013-03-29 14:53:00,
2013-03-29 11:02:00,46.0,25.0,30.21,South,170,1.0,4.0,43,0.00,,,0.00,,2013-03-29 15:02:00,
2013-03-29 11:12:00,46.0,25.0,30.21,South,170,1.0,4.0,43,0.00,,,0.00,,2013-03-29 15:12:00,
2013-03-29 11:22:00,49.0,26.0,30.21,South,170,0.0,3.0,40,0.00,,,0.00,,2013-03-29 15:22:00,
2013-03-29 11:33:00,49.0,26.0,30.21,South,170,0.0,3.0,40,0.00,,,0.00,,2013-03-29 15:33:00,
2013-03-29 11:43:00,49.0,26.0,30.21,South,170,0.0,3.0,40,0.00,,,0.00,,2013-03-29 15:43:00,
2013-03-29 11:53:00,49.0,17.0,30.21,South,170,1.0,6.0,28,0.00,,,0.00,,2013-03-29 15:53:00,
2013-03-29 12:03:00,49.0,17.0,30.21,South,170,1.0,5.0,28,0.00,,,0.00,,2013-03-29 16:03:00,
2013-03-29 12:13:00,49.0,17.0,30.21,South,170,1.0,5.0,28,0.00,,,0.00,,2013-03-29 16:13:00,
2013-03-29 12:23:00,50.0,18.0,30.20,South,170,1.0,4.0,28,0.00,,,0.00,,2013-03-29 16:23:00,
2013-03-29 12:33:00,51.0,18.0,30.19,South,170,2.0,8.0,27,0.00,,,0.00,,2013-03-29 16:33:00,
2013-03-29 12:43:00,51.0,18.0,30.19,South,170,2.0,8.0,27,0.00,,,0.00,,2013-03-29 16:43:00,
2013-03-29 12:53:00,49.0,17.0,30.19,South,172,3.0,12.0,28,0.00,,,0.00,,2013-03-29 16:53:00,
2013-03-29 13:03:00,52.0,21.0,30.19,South,170,2.0,8.0,29,0.00,,,0.00,,2013-03-29 17:03:00,
2013-03-29 13:12:00,52.0,21.0,30.19,South,170,2.0,8.0,29,0.00,,,0.00,,2013-03-29 17:12:00,
2013-03-29 13:23:00,52.0,17.0,30.18,SSE,165,4.0,11.0,25,0.00,,,0.00,,2013-03-29 17:23:00,
2013-03-29 13:33:00,52.0,19.0,30.18,South,170,2.0,12.0,27,0.00,,,0.00,,2013-03-29 17:33:00,
2013-03-29 13:43:00,52.0,19.0,30.18,South,170,2.0,12.0,27,0.00,,,0.00,,2013-03-29 17:43:00,
2013-03-29 13:53:00,54.0,22.0,30.17,South,172,1.0,9.0,28,0.00,,,0.00,,2013-03-29 17:53:00,
2013-03-29 14:02:00,54.0,22.0,30.17,South,174,1.0,5.0,28,0.00,,,0.00,,2013-03-29 18:02:00,
2013-03-29 14:12:00,54.0,22.0,30.17,South,174,1.0,5.0,28,0.00,,,0.00,,2013-03-29 18:12:00,
2013-03-29 14:23:00,54.0,22.0,30.16,South,174,1.0,9.0,28,0.00,,,0.00,,2013-03-29 18:23:00,
2013-03-29 14:32:00,52.0,21.0,30.16,South,170,2.0,11.0,29,0.00,,,0.00,,2013-03-29 18:32:00,
2013-03-29 14:42:00,52.0,21.0,30.16,South,170,2.0,11.0,29,0.00,,,0.00,,2013-03-29 18:42:00,
2013-03-29 14:53:00,53.0,23.0,30.16,South,172,0.0,6.0,31,0.00,,,0.00,,2013-03-29 18:53:00,
2013-03-29 15:03:00,52.0,22.0,30.15,South,173,0.0,5.0,31,0.00,,,0.00,,2013-03-29 19:03:00,
2013-03-29 15:12:00,51.0,25.0,30.16,South,172,2.0,12.0,36,0.00,,,0.00,,2013-03-29 19:12:00,
2013-03-29 15:23:00,51.0,25.0,30.16,South,172,2.0,12.0,36,0.00,,,0.00,,2013-03-29 19:23:00,
2013-03-29 15:33:00,50.0,26.0,30.15,South,172,1.0,8.0,39,0.00,,,0.00,,2013-03-29 19:33:00,
2013-03-29 15:43:00,50.0,26.0,30.15,South,172,1.0,8.0,39,0.00,,,0.00,,2013-03-29 19:43:00,
2013-03-29 15:53:00,49.0,26.0,30.15,South,176,2.0,6.0,41,0.00,,,0.00,,2013-03-29 19:53:00,
2013-03-29 16:03:00,49.0,29.0,30.15,South,181,0.0,8.0,45,0.00,,,0.00,,2013-03-29 20:03:00,
2013-03-29 16:12:00,49.0,29.0,30.15,South,181,0.0,8.0,45,0.00,,,0.00,,2013-03-29 20:12:00,
2013-03-29 16:23:00,49.0,31.0,30.15,South,175,1.0,7.0,49,0.00,,,0.00,,2013-03-29 20:23:00,
2013-03-29 16:33:00,48.0,30.0,30.15,South,170,0.0,10.0,50,0.00,,,0.00,,2013-03-29 20:33:00,
2013-03-29 16:42:00,48.0,30.0,30.15,South,170,0.0,10.0,50,0.00,,,0.00,,2013-03-29 20:42:00,
2013-03-29 16:52:00,47.0,30.0,30.14,South,172,2.0,8.0,52,0.00,,,0.00,,2013-03-29 20:52:00,
2013-03-29 17:02:00,46.0,30.0,30.15,South,173,2.0,7.0,54,0.00,,,0.00,,2013-03-29 21:02:00,
2013-03-29 17:12:00,46.0,30.0,30.15,South,173,2.0,7.0,54,0.00,,,0.00,,2013-03-29 21:12:00,
2013-03-29 17:22:00,44.0,32.0,30.14,South,169,3.0,11.0,63,0.00,,,0.00,,2013-03-29 21:22:00,
2013-03-29 17:33:00,44.0,34.0,30.14,South,170,3.0,9.0,67,0.00,,,0.00,,2013-03-29 21:33:00,
2013-03-29 17:43:00,44.0,34.0,30.14,South,170,3.0,9.0,67,0.00,,,0.00,,2013-03-29 21:43:00,
2013-03-29 17:53:00,44.0,34.0,30.14,South,172,1.0,9.0,67,0.00,,,0.00,,2013-03-29 21:53:00,
2013-03-29 18:03:00,44.0,34.0,30.14,SSE,168,2.0,10.0,68,0.00,,,0.00,,2013-03-29 22:03:00,
2013-03-29 18:13:00,44.0,34.0,30.14,SSE,168,2.0,10.0,68,0.00,,,0.00,,2013-03-29 22:13:00,
2013-03-29 18:23:00,43.0,35.0,30.14,South,170,1.0,8.0,72,0.00,,,0.00,,2013-03-29 22:23:00,
2013-03-29 18:33:00,41.0,33.0,30.14,South,169,1.0,10.0,74,0.00,,,0.00,,2013-03-29 22:33:00,
2013-03-29 18:42:00,41.0,33.0,30.14,South,169,1.0,10.0,74,0.00,,,0.00,,2013-03-29 22:42:00,
2013-03-29 18:54:00,40.0,34.0,30.14,SSE,163,2.0,13.0,79,0.00,,,0.00,,2013-03-29 22:54:00,
2013-03-29 19:03:00,39.0,34.0,30.14,South,170,1.0,11.0,83,0.00,,,0.00,,2013-03-29 23:03:00,
2013-03-29 19:12:00,39.0,34.0,30.14,South,170,1.0,11.0,83,0.00,,,0.00,,2013-03-29 23:12:00,
2013-03-29 19:22:00,38.0,34.0,30.13,South,169,1.0,10.0,85,0.01,,,0.01,,2013-03-29 23:22:00,
2013-03-29 19:32:00,38.0,34.0,30.13,SSE,167,1.0,15.0,87,0.01,,,0.01,,2013-03-29 23:32:00,
2013-03-29 19:42:00,38.0,34.0,30.13,SSE,167,1.0,15.0,87,0.01,,,0.01,,2013-03-29 23:42:00,
2013-03-29 19:53:00,38.0,34.0,30.14,SSE,165,1.0,9.0,87,0.01,,,0.01,,2013-03-29 23:53:00,
2013-03-29 20:03:00,37.0,34.0,30.14,SSE,166,1.0,9.0,88,0.01,,,0.01,,2013-03-30 00:03:00,
2013-03-29 20:12:00,37.0,34.0,30.14,SSE,166,1.0,9.0,88,0.01,,,0.01,,2013-03-30 00:12:00,
2013-03-29 20:22:00,37.0,34.0,30.14,SSE,163,3.0,10.0,88,0.01,,,0.02,,2013-03-30 00:22:00,
2013-03-29 20:32:00,37.0,34.0,30.14,South,169,1.0,8.0,89,0.01,,,0.02,,2013-03-30 00:32:00,
2013-03-29 20:43:00,37.0,34.0,30.14,South,169,1.0,8.0,89,0.01,,,0.02,,2013-03-30 00:43:00,
2013-03-29 20:53:00,37.0,34.0,30.14,South,169,0.0,10.0,89,0.01,,,0.02,,2013-03-30 00:53:00,
2013-03-29 21:03:00,37.0,34.0,30.14,SSE,167,2.0,10.0,90,0.03,,,0.04,,2013-03-30 01:03:00,
2013-03-29 21:13:00,37.0,34.0,30.14,SSE,167,2.0,10.0,90,0.03,,,0.04,,2013-03-30 01:13:00,
2013-03-29 21:22:00,36.0,33.0,30.14,SSE,165,2.0,10.0,90,0.02,,,0.04,,2013-03-30 01:22:00,
2013-03-29 21:33:00,36.0,33.0,30.14,SSE,166,1.0,9.0,90,0.03,,,0.05,,2013-03-30 01:33:00,
2013-03-29 21:43:00,36.0,33.0,30.14,SSE,166,1.0,9.0,90,0.03,,,0.05,,2013-03-30 01:43:00,
2013-03-29 21:53:00,37.0,34.0,30.14,SSE,166,3.0,11.0,90,0.03,,,0.05,,2013-03-30 01:53:00,
2013-03-29 22:03:00,37.0,34.0,30.15,SSE,167,1.0,11.0,90,0.01,,,0.05,,2013-03-30 02:03:00,
2013-03-29 22:12:00,37.0,34.0,30.15,SSE,167,1.0,11.0,90,0.01,,,0.05,,2013-03-30 02:12:00,
2013-03-29 22:22:00,36.0,34.0,30.14,South,169,1.0,9.0,91,0.01,,,0.05,,2013-03-30 02:22:00,
2013-03-29 22:33:00,36.0,34.0,30.15,South,169,0.0,7.0,91,0.00,,,0.05,,2013-03-30 02:33:00,
2013-03-29 22:43:00,36.0,34.0,30.15,South,169,0.0,7.0,91,0.00,,,0.05,,2013-03-30 02:43:00,
2013-03-29 22:53:00,37.0,34.0,30.15,South,171,0.0,5.0,90,0.00,,,0.05,,2013-03-30 02:53:00,
2013-03-29 23:03:00,37.0,34.0,30.15,South,170,0.0,5.0,90,0.00,,,0.05,,2013-03-30 03:03:00,
2013-03-29 23:12:00,37.0,34.0,30.14,South,171,1.0,5.0,89,0.00,,,0.05,,2013-03-30 03:12:00,
2013-03-29 23:22:00,37.0,34.0,30.14,South,171,1.0,5.0,89,0.00,,,0.05,,2013-03-30 03:22:00,
2013-03-29 23:33:00,37.0,34.0,30.15,South,171,0.0,7.0,90,0.00,,,0.05,,2013-03-30 03:33:00,
2013-03-29 23:43:00,37.0,34.0,30.15,South,171,0.0,7.0,90,0.00,,,0.05,,2013-03-30 03:43:00,
2013-03-29 23:53:00,37.0,34.0,30.14,South,172,0.0,2.0,90,0.00,,,0.05,,2013-03-30 03:53:00,